Lawrence, MA

11:45 PM EST on December 12, 2019 (GMT -0500)
Lawrence Municipal

Weather History for KLWM - November, 2019

Change the Weather History Date:

Tuesday, November 19, 2019

  Actual Average Record
Temperature  
Mean Temperature 39 °F -  
Max Temperature 41 °F 50 °F 73 °F (1941)
Min Temperature 37 °F 30 °F 10 °F (1936)
Degree Days  
Heating Degree Days 26    
Moisture  
Dew Point 37 °F    
Average Humidity 92    
Maximum Humidity 97    
Minimum Humidity 86    
Precipitation  
Precipitation 0.23 in - - ()
Sea Level Pressure  
Sea Level Pressure 29.79 in    
Wind  
Wind Speed 2 mph (NNE)    
Max Wind Speed 8 mph    
Max Gust Speed -    
Visibility 7 miles    
Events Rain    
Averages and records for this station are not official NWS values.
T = Trace of Precipitation, MM = Missing Value Source: NWS Daily Summary

Daily Weather History Graph

Daily Weather History Graph

Search for Another Location

Airport or City:

Astronomy

Nov. 19, 2019 Rise Set
Actual Time 6:40 AM EST 4:18 PM EST
Civil Twilight 6:10 AM EST 4:49 PM EST
Nautical Twilight 5:35 AM EST 5:23 PM EST
Astronomical Twilight 5:02 AM EST 5:57 PM EST
Moon 11:11 PM EST (11/19) 12:48 PM EST (11/19)
Length of Visible Light 10h 39m
Length of Day
9h 37m
Waning Gibbous, 52% of the Moon is Illuminated
Nov 19
Waning Gibbous
Nov 19
Last Quarter
Nov 26
New
Dec 4
First Quarter
Dec 12
Full

Hourly Weather History & Observations

Time (EST) Temp. Windchill Dew Point Humidity Pressure Visibility Wind Dir Wind Speed Gust Speed Precip Events Conditions
12:54 AM 37.9 °F - 36.0 °F 93% 29.71 in 3.0 mi Calm Calm - N/A   Overcast
1:37 AM 39.0 °F 34.8 °F 36.0 °F 89% 29.70 in 7.0 mi NE 5.8 mph - N/A   Overcast
1:54 AM 39.0 °F - 36.0 °F 89% 29.71 in 8.0 mi Calm Calm - N/A   Overcast
2:54 AM 37.9 °F - 37.0 °F 97% 29.72 in 10.0 mi Calm Calm - N/A   Overcast
3:03 AM 37.9 °F - 37.0 °F 97% 29.71 in 9.0 mi Calm Calm - N/A   Overcast
3:22 AM 37.9 °F - 36.0 °F 93% 29.71 in 2.0 mi Calm Calm - 0.00 in   Overcast
3:44 AM 37.9 °F - 37.0 °F 97% 29.72 in 3.0 mi Calm Calm - 0.01 in   Overcast
3:54 AM 37.9 °F - 37.0 °F 97% 29.73 in 2.5 mi Calm Calm - 0.01 in   Overcast
4:04 AM 37.9 °F - 36.0 °F 93% 29.72 in 2.5 mi Calm Calm - 0.00 in Rain Light Rain
4:15 AM 37.9 °F - 36.0 °F 93% 29.72 in 4.0 mi Calm Calm - 0.01 in Rain Light Rain
4:54 AM 37.9 °F - 36.0 °F 93% 29.73 in 4.0 mi Calm Calm - 0.01 in   Overcast
6:07 AM 37.0 °F - 35.1 °F 93% 29.76 in 2.5 mi Calm Calm - 0.00 in Rain Light Rain
6:51 AM 37.4 °F - 35.6 °F 93% 29.76 in 4.0 mi Calm Calm - 0.04 in Rain Light Rain
6:54 AM 37.0 °F - 36.0 °F 96% 29.76 in 4.0 mi Calm Calm - 0.05 in Rain Rain
7:21 AM 37.0 °F - 35.1 °F 93% 29.77 in 4.0 mi Calm Calm - 0.03 in Rain Light Rain
7:54 AM 37.0 °F 33.3 °F 35.1 °F 93% 29.77 in 3.0 mi NE 4.6 mph - 0.07 in Rain Rain
8:54 AM 37.9 °F 34.4 °F 35.1 °F 89% 29.77 in 10.0 mi NNE 4.6 mph - 0.07 in Rain Light Rain
9:54 AM 39.0 °F 36.8 °F 36.0 °F 89% 29.78 in 10.0 mi North 3.5 mph - 0.02 in   Overcast
10:40 AM 39.0 °F - 37.0 °F 93% 29.77 in 2.5 mi Calm Calm - N/A   Overcast
10:54 AM 39.0 °F - 37.9 °F 96% 29.78 in 4.0 mi Calm Calm - N/A   Overcast
11:54 AM 39.9 °F - 37.0 °F 89% 29.77 in 10.0 mi Calm Calm - N/A   Overcast
12:54 PM 41.0 °F 38.0 °F 37.0 °F 86% 29.77 in 10.0 mi North 4.6 mph - N/A   Overcast
1:54 PM 41.0 °F - 39.0 °F 93% 29.77 in 4.0 mi Calm Calm - N/A   Overcast
2:54 PM 41.0 °F - 37.9 °F 89% 29.79 in 8.0 mi Calm Calm - N/A   Overcast
3:54 PM 41.0 °F 39.0 °F 37.9 °F 89% 29.81 in 10.0 mi NE 3.5 mph - N/A   Overcast
4:54 PM 41.0 °F 39.0 °F 37.9 °F 89% 29.84 in 10.0 mi ENE 3.5 mph - N/A   Overcast
5:54 PM 41.0 °F - 37.9 °F 89% 29.86 in 10.0 mi Calm Calm - N/A   Overcast
6:54 PM 39.9 °F 37.8 °F 37.9 °F 93% 29.87 in 10.0 mi NE 3.5 mph - N/A   Overcast
7:01 PM 39.9 °F 37.8 °F 37.9 °F 93% 29.87 in 10.0 mi NE 3.5 mph - N/A   Overcast
7:54 PM 39.9 °F - 37.9 °F 93% 29.88 in 10.0 mi Calm Calm - N/A   Overcast
8:54 PM 39.0 °F 35.7 °F 37.0 °F 93% 29.88 in 9.0 mi NNE 4.6 mph - N/A   Overcast
9:54 PM 39.0 °F 35.7 °F 37.0 °F 93% 29.89 in 10.0 mi NE 4.6 mph - N/A   Overcast
10:17 PM 39.0 °F 34.0 °F 37.0 °F 93% 29.88 in 2.5 mi NNE 6.9 mph - N/A   Overcast
10:35 PM 39.0 °F 34.8 °F 37.0 °F 93% 29.88 in 6.0 mi NNE 5.8 mph - N/A   Overcast
10:54 PM 37.9 °F 32.1 °F 36.0 °F 93% 29.88 in 10.0 mi NNE 8.1 mph - N/A   Overcast
11:54 PM 37.9 °F 33.5 °F 36.0 °F 93% 29.87 in 10.0 mi North 5.8 mph - N/A   Overcast